TimeCST,TemperatureF,Dew PointF,Humidity,Sea Level PressureIn,VisibilityMPH,Wind Direction,Wind SpeedMPH,Gust SpeedMPH,PrecipitationIn,Events,Conditions,WindDirDegrees,DateUTC
12:53 AM,24.1,12.9,62,30.13,10.0,SSW,12.7,-,N/A,,Clear,200,2013-11-28 06:53:00
1:53 AM,24.1,12.9,62,30.12,10.0,SSW,12.7,-,N/A,,Clear,200,2013-11-28 07:53:00
2:53 AM,24.1,14.0,65,30.12,10.0,SW,12.7,-,N/A,,Clear,220,2013-11-28 08:53:00
3:53 AM,25.0,15.1,66,30.12,10.0,WSW,8.1,-,N/A,,Clear,240,2013-11-28 09:53:00
4:53 AM,25.0,17.1,72,30.13,10.0,West,11.5,-,N/A,,Clear,260,2013-11-28 10:53:00
5:53 AM,24.1,18.0,77,30.16,10.0,West,10.4,-,N/A,,Clear,280,2013-11-28 11:53:00
6:53 AM,23.0,17.1,78,30.20,10.0,WNW,8.1,-,N/A,,Clear,300,2013-11-28 12:53:00
7:53 AM,24.1,17.1,75,30.24,10.0,NW,9.2,-,N/A,,Clear,310,2013-11-28 13:53:00
8:53 AM,27.0,17.1,66,30.28,10.0,NNW,15.0,-,N/A,,Clear,340,2013-11-28 14:53:00
9:53 AM,28.9,16.0,58,30.31,10.0,NNW,17.3,23.0,N/A,,Clear,340,2013-11-28 15:53:00
10:53 AM,30.9,15.1,52,30.33,10.0,North,16.1,-,N/A,,Clear,360,2013-11-28 16:53:00
11:53 AM,33.1,15.1,48,30.34,10.0,NNW,12.7,-,N/A,,Clear,340,2013-11-28 17:53:00
12:53 PM,35.1,16.0,46,30.35,10.0,North,12.7,-,N/A,,Clear,360,2013-11-28 18:53:00
1:53 PM,35.1,15.1,44,30.37,10.0,NNW,12.7,-,N/A,,Clear,340,2013-11-28 19:53:00
2:53 PM,34.0,15.1,46,30.39,10.0,North,10.4,-,N/A,,Clear,360,2013-11-28 20:53:00
3:53 PM,33.1,15.1,48,30.42,10.0,North,11.5,-,N/A,,Clear,360,2013-11-28 21:53:00
4:53 PM,28.0,15.1,58,30.45,10.0,North,5.8,-,N/A,,Clear,350,2013-11-28 22:53:00
5:53 PM,26.1,15.1,63,30.47,10.0,North,6.9,-,N/A,,Clear,360,2013-11-28 23:53:00
6:53 PM,26.1,15.1,63,30.49,10.0,North,3.5,-,N/A,,Clear,10,2013-11-29 00:53:00
7:53 PM,26.1,15.1,63,30.50,10.0,NNE,3.5,-,N/A,,Clear,20,2013-11-29 01:53:00
8:53 PM,24.1,15.1,69,30.51,10.0,Calm,Calm,-,N/A,,Clear,0,2013-11-29 02:53:00
9:53 PM,21.9,15.1,75,30.51,10.0,ENE,4.6,-,N/A,,Clear,70,2013-11-29 03:53:00
10:53 PM,21.0,14.0,74,30.53,10.0,Calm,Calm,-,N/A,,Clear,0,2013-11-29 04:53:00
11:53 PM,24.1,15.1,69,30.53,10.0,Calm,Calm,-,N/A,,Clear,0,2013-11-29 05:53:00